Time,TemperatureF,DewpointF,PressureIn,WindDirection,WindDirectionDegrees,WindSpeedMPH,WindSpeedGustMPH,Humidity,HourlyPrecipIn,Conditions,Clouds,dailyrainin,SoftwareType,DateUTC
2013-02-28 00:01:00,52.0,-99.9,30.37,South,169,5.0,8.0,-999,-99.99,,,-99.99,,2013-02-28 08:01:00,
2013-02-28 00:12:00,52.0,-99.9,30.37,SSE,167,3.0,5.0,-999,-99.99,,,-99.99,,2013-02-28 08:12:00,
2013-02-28 00:22:00,52.0,-99.9,30.37,SSE,151,4.0,9.0,-999,-99.99,,,-99.99,,2013-02-28 08:22:00,
2013-02-28 00:32:00,52.0,-99.9,30.37,SSE,167,6.0,7.0,-999,-99.99,,,-99.99,,2013-02-28 08:32:00,
2013-02-28 00:42:00,52.0,-99.9,30.37,SSE,157,4.0,6.0,-999,-99.99,,,-99.99,,2013-02-28 08:42:00,
2013-02-28 00:53:00,52.0,-99.9,30.37,SSE,160,4.0,7.0,-999,-99.99,,,-99.99,,2013-02-28 08:53:00,
2013-02-28 01:04:00,52.0,-99.9,30.37,SSE,154,4.0,7.0,-999,-99.99,,,-99.99,,2013-02-28 09:04:00,
2013-02-28 01:12:00,52.0,-99.9,30.37,SSE,153,4.0,7.0,-999,-99.99,,,-99.99,,2013-02-28 09:12:00,
2013-02-28 01:22:00,52.0,-99.9,30.38,SSE,164,6.0,7.0,-999,-99.99,,,-99.99,,2013-02-28 09:22:00,
2013-02-28 01:32:00,52.0,-99.9,30.38,SSE,151,5.0,7.0,-999,-99.99,,,-99.99,,2013-02-28 09:32:00,
2013-02-28 01:42:00,52.0,-99.9,30.38,SSE,158,7.0,10.0,-999,-99.99,,,-99.99,,2013-02-28 09:42:00,
2013-02-28 01:53:00,52.0,-99.9,30.38,SSE,151,5.0,9.0,-999,-99.99,,,-99.99,,2013-02-28 09:53:00,
2013-02-28 02:02:00,52.0,-99.9,30.38,SSE,158,6.0,10.0,-999,-99.99,,,-99.99,,2013-02-28 10:02:00,
2013-02-28 02:12:00,52.0,-99.9,30.38,SSE,160,7.0,10.0,-999,-99.99,,,-99.99,,2013-02-28 10:12:00,
2013-02-28 02:22:00,51.0,-99.9,30.38,SSE,164,8.0,10.0,-999,-99.99,,,-99.99,,2013-02-28 10:22:00,
2013-02-28 02:32:00,51.0,-99.9,30.39,South,169,7.0,9.0,-999,-99.99,,,-99.99,,2013-02-28 10:32:00,
2013-02-28 02:42:00,51.0,-99.9,30.39,SSE,166,7.0,9.0,-999,-99.99,,,-99.99,,2013-02-28 10:42:00,
2013-02-28 02:52:00,51.0,-99.9,30.38,SSE,154,5.0,8.0,-999,-99.99,,,-99.99,,2013-02-28 10:52:00,
2013-02-28 03:02:00,51.0,-99.9,30.37,SE,143,4.0,7.0,-999,-99.99,,,-99.99,,2013-02-28 11:02:00,
2013-02-28 03:11:00,52.0,-99.9,30.38,SE,145,4.0,8.0,-999,-99.99,,,-99.99,,2013-02-28 11:11:00,
2013-02-28 03:22:00,51.0,-99.9,30.38,SSE,155,5.0,8.0,-999,-99.99,,,-99.99,,2013-02-28 11:22:00,
2013-02-28 03:32:00,51.0,-99.9,30.38,SSE,159,6.0,9.0,-999,-99.99,,,-99.99,,2013-02-28 11:32:00,
2013-02-28 03:42:00,51.0,-99.9,30.38,South,169,6.0,9.0,-999,-99.99,,,-99.99,,2013-02-28 11:42:00,
2013-02-28 03:53:00,51.0,-99.9,30.38,SSE,158,5.0,8.0,-999,-99.99,,,-99.99,,2013-02-28 11:53:00,
2013-02-28 04:02:00,51.0,-99.9,30.38,SSE,163,7.0,10.0,-999,-99.99,,,-99.99,,2013-02-28 12:02:00,
2013-02-28 04:12:00,51.0,-99.9,30.38,SSE,158,4.0,10.0,-999,-99.99,,,-99.99,,2013-02-28 12:12:00,
2013-02-28 04:22:00,51.0,-99.9,30.38,SSE,160,7.0,10.0,-999,-99.99,,,-99.99,,2013-02-28 12:22:00,
2013-02-28 04:32:00,51.0,-99.9,30.37,SSE,166,8.0,10.0,-999,-99.99,,,-99.99,,2013-02-28 12:32:00,
2013-02-28 04:42:00,51.0,-99.9,30.37,SSE,151,4.0,8.0,-999,-99.99,,,-99.99,,2013-02-28 12:42:00,
2013-02-28 04:53:00,51.0,-99.9,30.38,SE,144,4.0,6.0,-999,-99.99,,,-99.99,,2013-02-28 12:53:00,
2013-02-28 05:02:00,51.0,-99.9,30.38,SSE,147,3.0,6.0,-999,-99.99,,,-99.99,,2013-02-28 13:02:00,
2013-02-28 05:12:00,51.0,-99.9,30.38,SE,144,4.0,6.0,-999,-99.99,,,-99.99,,2013-02-28 13:12:00,
2013-02-28 05:22:00,51.0,-99.9,30.38,SSE,164,7.0,9.0,-999,-99.99,,,-99.99,,2013-02-28 13:22:00,
2013-02-28 05:42:00,51.0,-99.9,30.40,South,182,4.0,8.0,-999,-99.99,,,-99.99,,2013-02-28 13:42:00,
2013-02-28 05:52:00,51.0,-99.9,30.40,SSE,166,5.0,7.0,-999,-99.99,,,-99.99,,2013-02-28 13:52:00,
2013-02-28 06:02:00,51.0,-99.9,30.40,SE,142,3.0,6.0,-999,-99.99,,,-99.99,,2013-02-28 14:02:00,
2013-02-28 06:12:00,51.0,-99.9,30.40,SE,142,3.0,6.0,-999,-99.99,,,-99.99,,2013-02-28 14:12:00,
2013-02-28 06:22:00,51.0,-99.9,30.41,SSE,155,3.0,5.0,-999,-99.99,,,-99.99,,2013-02-28 14:22:00,
2013-02-28 06:32:00,51.0,-99.9,30.41,South,169,6.0,7.0,-999,-99.99,,,-99.99,,2013-02-28 14:32:00,
2013-02-28 06:42:00,51.0,-99.9,30.41,SSE,151,3.0,7.0,-999,-99.99,,,-99.99,,2013-02-28 14:42:00,
2013-02-28 06:52:00,51.0,-99.9,30.41,SE,143,3.0,6.0,-999,-99.99,,,-99.99,,2013-02-28 14:52:00,
2013-02-28 07:02:00,51.0,-99.9,30.41,SSE,150,4.0,6.0,-999,-99.99,,,-99.99,,2013-02-28 15:02:00,
2013-02-28 07:11:00,51.0,-99.9,30.41,SSE,154,4.0,7.0,-999,-99.99,,,-99.99,,2013-02-28 15:11:00,
2013-02-28 07:22:00,52.0,-99.9,30.42,SSE,157,4.0,8.0,-999,-99.99,,,-99.99,,2013-02-28 15:22:00,
2013-02-28 07:32:00,52.0,-99.9,30.42,SSE,157,4.0,8.0,-999,-99.99,,,-99.99,,2013-02-28 15:32:00,
2013-02-28 07:42:00,52.0,-99.9,30.42,SSE,155,5.0,8.0,-999,-99.99,,,-99.99,,2013-02-28 15:42:00,
2013-02-28 07:52:00,52.0,-99.9,30.42,SSE,156,6.0,9.0,-999,-99.99,,,-99.99,,2013-02-28 15:52:00,
2013-02-28 08:02:00,52.0,-99.9,30.42,SSE,154,4.0,7.0,-999,-99.99,,,-99.99,,2013-02-28 16:02:00,
2013-02-28 08:12:00,52.0,-99.9,30.42,SSE,156,4.0,6.0,-999,-99.99,,,-99.99,,2013-02-28 16:12:00,
2013-02-28 08:22:00,52.0,-99.9,30.43,SSE,148,3.0,5.0,-999,-99.99,,,-99.99,,2013-02-28 16:22:00,
2013-02-28 08:32:00,52.0,-99.9,30.43,SSE,149,4.0,6.0,-999,-99.99,,,-99.99,,2013-02-28 16:32:00,
2013-02-28 08:43:00,52.0,-99.9,30.43,SSE,159,4.0,6.0,-999,-99.99,,,-99.99,,2013-02-28 16:43:00,
2013-02-28 08:53:00,52.0,-99.9,30.44,SSE,149,4.0,6.0,-999,-99.99,,,-99.99,,2013-02-28 16:53:00,
2013-02-28 09:02:00,53.0,-99.9,30.44,SSE,148,3.0,6.0,-999,-99.99,,,-99.99,,2013-02-28 17:02:00,
2013-02-28 09:12:00,53.0,-99.9,30.45,SSE,155,4.0,7.0,-999,-99.99,,,-99.99,,2013-02-28 17:12:00,
2013-02-28 09:22:00,53.0,-99.9,30.45,SSE,160,5.0,7.0,-999,-99.99,,,-99.99,,2013-02-28 17:22:00,
2013-02-28 09:33:00,53.0,-99.9,30.45,SSE,160,5.0,7.0,-999,-99.99,,,-99.99,,2013-02-28 17:33:00,
2013-02-28 09:42:00,53.0,-99.9,30.45,SSE,163,6.0,7.0,-999,-99.99,,,-99.99,,2013-02-28 17:42:00,
2013-02-28 09:53:00,53.0,-99.9,30.45,SSE,167,6.0,8.0,-999,-99.99,,,-99.99,,2013-02-28 17:53:00,
2013-02-28 10:02:00,53.0,-99.9,30.45,SSE,168,6.0,8.0,-999,-99.99,,,-99.99,,2013-02-28 18:02:00,
2013-02-28 10:12:00,53.0,-99.9,30.46,South,169,6.0,7.0,-999,-99.99,,,-99.99,,2013-02-28 18:12:00,
2013-02-28 10:22:00,54.0,-99.9,30.46,SSE,162,5.0,7.0,-999,-99.99,,,-99.99,,2013-02-28 18:22:00,
2013-02-28 10:32:00,54.0,-99.9,30.46,SSE,163,6.0,8.0,-999,-99.99,,,-99.99,,2013-02-28 18:32:00,
2013-02-28 10:43:00,55.0,-99.9,30.46,SSE,152,5.0,7.0,-999,-99.99,,,-99.99,,2013-02-28 18:43:00,
2013-02-28 10:52:00,56.0,-99.9,30.45,SE,143,4.0,6.0,-999,-99.99,,,-99.99,,2013-02-28 18:52:00,
2013-02-28 11:02:00,56.0,-99.9,30.45,SSE,150,4.0,6.0,-999,-99.99,,,-99.99,,2013-02-28 19:02:00,
2013-02-28 11:12:00,55.0,-99.9,30.45,SSE,155,5.0,8.0,-999,-99.99,,,-99.99,,2013-02-28 19:12:00,
2013-02-28 11:22:00,55.0,-99.9,30.45,SSE,152,4.0,8.0,-999,-99.99,,,-99.99,,2013-02-28 19:22:00,
2013-02-28 11:32:00,55.0,-99.9,30.44,SSE,155,5.0,8.0,-999,-99.99,,,-99.99,,2013-02-28 19:32:00,
2013-02-28 11:42:00,55.0,-99.9,30.44,SSE,157,5.0,7.0,-999,-99.99,,,-99.99,,2013-02-28 19:42:00,
2013-02-28 11:52:00,55.0,-99.9,30.44,SSE,167,6.0,7.0,-999,-99.99,,,-99.99,,2013-02-28 19:52:00,
2013-02-28 12:01:00,55.0,-99.9,30.44,South,170,4.0,7.0,-999,-99.99,,,-99.99,,2013-02-28 20:01:00,
2013-02-28 12:12:00,55.0,-99.9,30.44,SSE,165,6.0,8.0,-999,-99.99,,,-99.99,,2013-02-28 20:12:00,
2013-02-28 12:22:00,56.0,-99.9,30.44,South,173,6.0,8.0,-999,-99.99,,,-99.99,,2013-02-28 20:22:00,
2013-02-28 12:32:00,56.0,-99.9,30.44,SSW,196,8.0,11.0,-999,-99.99,,,-99.99,,2013-02-28 20:32:00,
2013-02-28 12:42:00,56.0,-99.9,30.43,South,181,8.0,11.0,-999,-99.99,,,-99.99,,2013-02-28 20:42:00,
2013-02-28 13:02:00,57.0,-99.9,30.43,South,189,7.0,11.0,-999,-99.99,,,-99.99,,2013-02-28 21:02:00,
2013-02-28 13:11:00,58.0,-99.9,30.43,SSW,193,6.0,9.0,-999,-99.99,,,-99.99,,2013-02-28 21:11:00,
2013-02-28 13:22:00,59.0,-99.9,30.42,SSE,159,6.0,9.0,-999,-99.99,,,-99.99,,2013-02-28 21:22:00,
2013-02-28 13:42:00,55.0,-99.9,30.41,SSE,158,7.0,9.0,-999,-99.99,,,-99.99,,2013-02-28 21:42:00,
2013-02-28 13:52:00,55.0,-99.9,30.40,SSE,163,7.0,11.0,-999,-99.99,,,-99.99,,2013-02-28 21:52:00,
2013-02-28 14:02:00,57.0,-99.9,30.40,South,176,4.0,8.0,-999,-99.99,,,-99.99,,2013-02-28 22:02:00,
2013-02-28 14:11:00,58.0,-99.9,30.40,South,187,4.0,7.0,-999,-99.99,,,-99.99,,2013-02-28 22:11:00,
2013-02-28 14:22:00,57.0,-99.9,30.40,South,173,5.0,8.0,-999,-99.99,,,-99.99,,2013-02-28 22:22:00,
2013-02-28 14:32:00,58.0,-99.9,30.40,South,184,3.0,6.0,-999,-99.99,,,-99.99,,2013-02-28 22:32:00,
2013-02-28 14:42:00,57.0,-99.9,30.40,South,182,6.0,9.0,-999,-99.99,,,-99.99,,2013-02-28 22:42:00,
2013-02-28 14:52:00,56.0,-99.9,30.40,SSW,195,6.0,8.0,-999,-99.99,,,-99.99,,2013-02-28 22:52:00,
2013-02-28 15:02:00,56.0,-99.9,30.40,SSW,195,6.0,8.0,-999,-99.99,,,-99.99,,2013-02-28 23:02:00,
2013-02-28 15:12:00,55.0,-99.9,30.40,South,190,7.0,9.0,-999,-99.99,,,-99.99,,2013-02-28 23:12:00,
2013-02-28 15:22:00,57.0,-99.9,30.40,South,185,4.0,8.0,-999,-99.99,,,-99.99,,2013-02-28 23:22:00,
2013-02-28 15:32:00,57.0,-99.9,30.40,SSW,193,5.0,6.0,-999,-99.99,,,-99.99,,2013-02-28 23:32:00,
2013-02-28 15:42:00,57.0,-99.9,30.40,SSE,153,3.0,5.0,-999,-99.99,,,-99.99,,2013-02-28 23:42:00,
2013-02-28 15:53:00,57.0,-99.9,30.40,SSE,149,2.0,6.0,-999,-99.99,,,-99.99,,2013-02-28 23:53:00,
2013-02-28 16:02:00,57.0,-99.9,30.40,SE,125,3.0,4.0,-999,-99.99,,,-99.99,,2013-03-01 00:02:00,
2013-02-28 16:11:00,57.0,-99.9,30.40,SE,124,4.0,4.0,-999,-99.99,,,-99.99,,2013-03-01 00:11:00,
2013-02-28 16:32:00,58.0,-99.9,30.39,SSE,156,2.0,4.0,-999,-99.99,,,-99.99,,2013-03-01 00:32:00,
2013-02-28 16:42:00,57.0,-99.9,30.39,SSE,168,5.0,6.0,-999,-99.99,,,-99.99,,2013-03-01 00:42:00,
2013-02-28 17:01:00,58.0,-99.9,30.39,SE,135,3.0,5.0,-999,-99.99,,,-99.99,,2013-03-01 01:01:00,
2013-02-28 17:11:00,58.0,-99.9,30.39,SE,142,2.0,6.0,-999,-99.99,,,-99.99,,2013-03-01 01:11:00,
2013-02-28 17:22:00,57.0,-99.9,30.38,SE,139,3.0,5.0,-999,-99.99,,,-99.99,,2013-03-01 01:22:00,
2013-02-28 17:32:00,56.0,-99.9,30.39,SSE,153,4.0,6.0,-999,-99.99,,,-99.99,,2013-03-01 01:32:00,
2013-02-28 17:42:00,56.0,-99.9,30.39,South,174,4.0,7.0,-999,-99.99,,,-99.99,,2013-03-01 01:42:00,
2013-02-28 17:52:00,55.0,-99.9,30.39,SSW,192,6.0,8.0,-999,-99.99,,,-99.99,,2013-03-01 01:52:00,
2013-02-28 18:01:00,55.0,-99.9,30.39,SSE,163,4.0,7.0,-999,-99.99,,,-99.99,,2013-03-01 02:01:00,
2013-02-28 18:11:00,55.0,-99.9,30.39,South,174,3.0,4.0,-999,-99.99,,,-99.99,,2013-03-01 02:11:00,
2013-02-28 18:22:00,55.0,-99.9,30.39,SSE,166,4.0,5.0,-999,-99.99,,,-99.99,,2013-03-01 02:22:00,
2013-02-28 18:32:00,55.0,-99.9,30.39,SSW,194,3.0,5.0,-999,-99.99,,,-99.99,,2013-03-01 02:32:00,
2013-02-28 18:42:00,55.0,-99.9,30.39,SE,145,3.0,3.0,-999,-99.99,,,-99.99,,2013-03-01 02:42:00,
2013-02-28 18:52:00,54.0,-99.9,30.40,ESE,111,3.0,4.0,-999,-99.99,,,-99.99,,2013-03-01 02:52:00,
2013-02-28 19:02:00,54.0,-99.9,30.40,ESE,111,2.0,3.0,-999,-99.99,,,-99.99,,2013-03-01 03:02:00,
2013-02-28 19:12:00,54.0,-99.9,30.40,SE,138,1.0,3.0,-999,-99.99,,,-99.99,,2013-03-01 03:12:00,
2013-02-28 19:22:00,56.0,-99.9,30.40,NNE,29,1.0,2.0,-999,-99.99,,,-99.99,,2013-03-01 03:22:00,
2013-02-28 19:32:00,57.0,-99.9,30.40,NNE,15,1.0,3.0,-999,-99.99,,,-99.99,,2013-03-01 03:32:00,
2013-02-28 19:42:00,56.0,-99.9,30.41,SE,135,2.0,4.0,-999,-99.99,,,-99.99,,2013-03-01 03:42:00,
2013-02-28 19:52:00,55.0,-99.9,30.41,South,172,2.0,3.0,-999,-99.99,,,-99.99,,2013-03-01 03:52:00,
2013-02-28 20:02:00,55.0,-99.9,30.41,SE,132,4.0,5.0,-999,-99.99,,,-99.99,,2013-03-01 04:02:00,
2013-02-28 20:12:00,54.0,-99.9,30.42,SSE,153,3.0,6.0,-999,-99.99,,,-99.99,,2013-03-01 04:12:00,
2013-02-28 20:22:00,54.0,-99.9,30.42,SSE,151,3.0,5.0,-999,-99.99,,,-99.99,,2013-03-01 04:22:00,
2013-02-28 20:32:00,54.0,-99.9,30.42,SSE,153,3.0,5.0,-999,-99.99,,,-99.99,,2013-03-01 04:32:00,
2013-02-28 20:42:00,54.0,-99.9,30.42,South,170,2.0,4.0,-999,-99.99,,,-99.99,,2013-03-01 04:42:00,
2013-02-28 21:02:00,54.0,-99.9,30.42,ESE,121,2.0,3.0,-999,-99.99,,,-99.99,,2013-03-01 05:02:00,
2013-02-28 21:11:00,53.0,-99.9,30.42,ESE,122,1.0,2.0,-999,-99.99,,,-99.99,,2013-03-01 05:11:00,
2013-02-28 21:22:00,53.0,-99.9,30.42,SSE,166,3.0,4.0,-999,-99.99,,,-99.99,,2013-03-01 05:22:00,
2013-02-28 21:42:00,53.0,-99.9,30.43,SSW,193,4.0,7.0,-999,-99.99,,,-99.99,,2013-03-01 05:42:00,
2013-02-28 21:53:00,52.0,-99.9,30.43,SSW,192,4.0,6.0,-999,-99.99,,,-99.99,,2013-03-01 05:53:00,
2013-02-28 22:02:00,52.0,-99.9,30.43,SSW,196,6.0,8.0,-999,-99.99,,,-99.99,,2013-03-01 06:02:00,
2013-02-28 22:12:00,52.0,-99.9,30.43,South,190,4.0,7.0,-999,-99.99,,,-99.99,,2013-03-01 06:12:00,
2013-02-28 22:22:00,53.0,-99.9,30.44,SE,132,3.0,4.0,-999,-99.99,,,-99.99,,2013-03-01 06:22:00,
2013-02-28 22:32:00,53.0,-99.9,30.44,SSE,148,1.0,4.0,-999,-99.99,,,-99.99,,2013-03-01 06:32:00,
2013-02-28 22:43:00,53.0,-99.9,30.44,SSW,195,2.0,3.0,-999,-99.99,,,-99.99,,2013-03-01 06:43:00,
2013-02-28 22:53:00,53.0,-99.9,30.44,SSW,195,2.0,3.0,-999,-99.99,,,-99.99,,2013-03-01 06:53:00,
2013-02-28 23:02:00,53.0,-99.9,30.44,South,191,2.0,4.0,-999,-99.99,,,-99.99,,2013-03-01 07:02:00,
2013-02-28 23:12:00,53.0,-99.9,30.44,SSW,204,2.0,4.0,-999,-99.99,,,-99.99,,2013-03-01 07:12:00,
2013-02-28 23:22:00,52.0,-99.9,30.44,South,184,5.0,8.0,-999,-99.99,,,-99.99,,2013-03-01 07:22:00,
2013-02-28 23:33:00,52.0,-99.9,30.44,SSW,192,5.0,8.0,-999,-99.99,,,-99.99,,2013-03-01 07:33:00,
2013-02-28 23:42:00,52.0,-99.9,30.44,SSW,198,3.0,5.0,-999,-99.99,,,-99.99,,2013-03-01 07:42:00,
2013-02-28 23:52:00,52.0,-99.9,30.43,South,189,2.0,4.0,-999,-99.99,,,-99.99,,2013-03-01 07:52:00,